Location: *
(39.6167°S, 171.5333°W)
Time: 06:07:19
(UTC+00:00)

CZ-2C R/B - Pass Details

Date: 13 May 2021
Orbit: 705 x 907 km, 98.0° (Epoch: 16 June)

Event Time Altitude Azimuth Distance (km) Brightness Sun altitude
Rises 16:59:01 0° 25° (NNE) 3,459 6.9 -16.1°
Reaches altitude 10° 17:01:28 10° 28° (NNE) 2,505 6.2 -15.7°
Maximum altitude 17:06:57 60° 106° (ESE) 957 3.8 -14.6°
Drops below altitude 10° 17:12:13 10° 185° (S) 2,407 5.4 -13.6°
Sets 17:14:31 0° 188° (S) 3,313 6.1 -13.2°
